niniweblog.com alexa rank chart, niniweblog.com alexa rank daily changes

niniweblog.com alexa rank chart, niniweblog.com alexa rank daily changes

niniweblog.com
Actual rank:
19 073

RANK HISTORY

Date Rank Diff
2017/12/14 19 073 +6
2017/12/13 19 067 +106
2017/12/12 18 961 -53
2017/12/11 19 014 -131
2017/12/10 19 145 +44
2017/12/09 19 101 +133
2017/12/08 18 968 +153
2017/12/07 18 815 +134
2017/12/06 18 681 +64
2017/12/05 18 617 -90
2017/12/04 18 707 +27
2017/12/03 18 680 +273
2017/12/02 18 407 +168
2017/12/01 18 239 +199
2017/11/30 18 040 +112
2017/11/29 17 928 +17
2017/11/28 17 911 -41
2017/11/27 17 952 -65
2017/11/26 18 017 +112
2017/11/25 17 905 +78
2017/11/24 17 827 +50
2017/11/23 17 777 +55
2017/11/22 17 722 -69
2017/11/21 17 791 -12
2017/11/20 17 803 +59
2017/11/19 17 744 +71
2017/11/18 17 673 +112
2017/11/17 17 561 +91
2017/11/16 17 470 +90
2017/11/15 17 380 -45
2017/11/14 17 425 -77
2017/11/13 17 502 -84
2017/11/12 17 586 +51
2017/11/11 17 535 +125
2017/11/10 17 410 +100
2017/11/09 17 310 +13
2017/11/08 17 297 -93
2017/11/07 17 390 -118
2017/11/06 17 508 -64
2017/11/05 17 572 +37
2017/11/04 17 535 -67
2017/11/03 17 602 -366
2017/11/02 17 968 -361
2017/11/01 18 329 -97
2017/10/31 18 426 -282
2017/10/30 18 708 -331
2017/10/29 19 039 -63
2017/10/28 19 102 -8
2017/10/27 19 110 -23
2017/10/26 19 133 -29
2017/10/25 19 162 -3
2017/10/24 19 165 -219
2017/10/23 19 384 -153
2017/10/22 19 537 +72
2017/10/21 19 465 +102
2017/10/20 19 363 +17
2017/10/19 19 346 +21
2017/10/18 19 325 +10
2017/10/17 19 315 -173
2017/10/16 19 488

WIDGET FOR YOUR SITE

DOMAINS WITH THE NEAREST RANK

Domain Rank
getandroid.ir 19 068
collarspace.com 19 069
shaheenair.com 19 070
anime47.com 19 071
narod.hr 19 072
niniweblog.com 19 073
moncler.com 19 074
njust.edu.cn 19 075
infor.com 19 076
magazinelib.com 19 077
compuzone.co.kr 19 078

DOMAINS WITH THE NEAREST RANK BY TLD .com

Domain Rank
gooyaabitemplates.com 19 066
burton.com 19 067
collarspace.com 19 069
shaheenair.com 19 070
anime47.com 19 071
niniweblog.com 19 073
moncler.com 19 074
infor.com 19 076
magazinelib.com 19 077
javjack.com 19 079
principal.com 19 082